McCook, NE

9:09 AM CDT on March 30, 2017 (GMT -0500)
McCook Municipal

Weather History for KMCK - November, 2012

Change the Weather History Date:

Friday, November 9, 2012

  Actual Average Record
Temperature  
Mean Temperature 42 °F 41 °F  
Max Temperature 54 °F 56 °F 79 °F (1999)
Min Temperature 29 °F 27 °F 13 °F (1953)
Degree Days  
Heating Degree Days 24    
Moisture  
Dew Point 33 °F    
Average Humidity 81    
Maximum Humidity 100    
Minimum Humidity 55    
Precipitation  
Precipitation 0.00 in 0.03 in 0.70 in (1970)
Month to date precipitation 0.00 0.35  
Year to date precipitation 8.09 21.29  
Sea Level Pressure  
Sea Level Pressure 29.75 in    
Wind  
Wind Speed 7 mph (NE)    
Max Wind Speed 13 mph    
Max Gust Speed -    
Visibility 5 miles    
Events Fog    
T = Trace of Precipitation, MM = Missing Value Source: NWS Daily Summary

Daily Weather History Graph

Daily Weather History Graph

Search for Another Location

Airport or City:

Trip Planner

Search our weather history database for the weather conditions in past years. The results will help you decide how hot, cold, wet, or windy it might be!

Date:

Astronomy

Nov. 09, 2012 Rise Set
Actual Time 7:21 AM CST 5:30 PM CST
Civil Twilight 6:52 AM CST 5:59 PM CST
Nautical Twilight 6:20 AM CST 6:31 PM CST
Astronomical Twilight 5:48 AM CST 7:03 PM CST
Moon 2:22 AM CST (11/9) 2:44 PM CST (11/9)
Length of Visible Light 11h 06m
Length of Day
10h 08m
Waning Crescent, 23% of the Moon is Illuminated
Nov 9
Waning Crescent
Nov 13
New
Nov 20
First Quarter
Nov 28
Full
Dec 6
Last Quarter

Hourly Weather History & Observations

Time (CST) Temp. Windchill Dew Point Humidity Pressure Visibility Wind Dir Wind Speed Gust Speed Precip Events Conditions
12:53 AM 37.0 °F 31.6 °F 30.0 °F 76% 29.85 in 10.0 mi NNE 6.9 mph - N/A   Clear
1:53 AM 37.0 °F 31.6 °F 28.9 °F 73% 29.81 in 10.0 mi ENE 6.9 mph - N/A   Clear
2:53 AM 33.1 °F 26.9 °F 28.0 °F 82% 29.83 in 10.0 mi North 6.9 mph - N/A   Clear
3:53 AM 33.1 °F 27.7 °F 28.0 °F 82% 29.82 in 10.0 mi NE 5.8 mph - N/A   Clear
4:53 AM 32.0 °F 25.6 °F 28.0 °F 85% 29.84 in 10.0 mi North 6.9 mph - N/A   Clear
5:53 AM 30.9 °F 26.2 °F 28.0 °F 89% 29.87 in 9.0 mi NW 4.6 mph - N/A   Clear
6:53 AM 30.0 °F 26.5 °F 27.0 °F 88% 29.86 in 7.0 mi NNE 3.5 mph - N/A   Clear
7:53 AM 30.0 °F - 28.0 °F 92% 29.88 in 4.0 mi Calm Calm - N/A   Clear
8:53 AM 33.1 °F 23.9 °F 30.0 °F 89% 29.88 in 4.0 mi NE 12.7 mph - N/A   Mostly Cloudy
9:03 AM 33.8 °F 25.8 °F 30.2 °F 87% 29.84 in 2.5 mi ENE 10.4 mph - N/A   Mostly Cloudy
9:53 AM 36.0 °F 28.5 °F 33.1 °F 89% 29.87 in 3.0 mi NE 10.4 mph - N/A   Overcast
10:08 AM 37.4 °F 30.3 °F 33.8 °F 87% 29.83 in 4.0 mi NNE 10.4 mph - N/A   Overcast
10:53 AM 41.0 °F 34.7 °F 34.0 °F 76% 29.83 in 5.0 mi NE 10.4 mph - N/A   Haze
11:10 AM 42.8 °F 37.5 °F 35.6 °F 76% 29.79 in 5.0 mi ENE 9.2 mph - N/A   Haze
11:53 AM 46.0 °F 41.4 °F 36.0 °F 68% 29.79 in 7.0 mi NE 9.2 mph - N/A   Clear
12:53 PM 50.0 °F - 36.0 °F 59% 29.73 in 7.0 mi ENE 10.4 mph - N/A   Clear
1:53 PM 52.0 °F - 37.0 °F 57% 29.71 in 7.0 mi East 9.2 mph - N/A   Clear
2:53 PM 53.1 °F - 37.0 °F 55% 29.70 in 7.0 mi East 12.7 mph - N/A   Clear
3:53 PM 53.1 °F - 37.0 °F 55% 29.70 in 7.0 mi East 11.5 mph - N/A   Clear
4:53 PM 51.1 °F - 37.0 °F 59% 29.70 in 6.0 mi East 10.4 mph - N/A   Haze
5:53 PM 45.0 °F 40.6 °F 36.0 °F 71% 29.69 in 7.0 mi ENE 8.1 mph - N/A   Clear
6:53 PM 39.9 °F 33.9 °F 34.0 °F 79% 29.71 in 6.0 mi NE 9.2 mph - N/A   Haze
7:53 PM 37.9 °F 32.1 °F 34.0 °F 86% 29.70 in 5.0 mi ENE 8.1 mph - N/A   Clear
8:53 PM 36.0 °F 29.6 °F 34.0 °F 93% 29.69 in 4.0 mi ENE 8.1 mph - N/A   Clear
9:34 PM 33.8 °F 28.6 °F 32.0 °F 93% 29.64 in 2.5 mi NE 5.8 mph - N/A   Clear
9:53 PM 34.0 °F 28.8 °F 32.0 °F 92% 29.69 in 2.0 mi ENE 5.8 mph - N/A   Partly Cloudy
10:11 PM 33.8 °F 29.6 °F 33.8 °F 100% 29.64 in 2.0 mi NNE 4.6 mph - N/A   Mostly Cloudy
10:32 PM 35.6 °F 31.7 °F 33.8 °F 93% 29.63 in 2.0 mi NNE 4.6 mph - N/A   Overcast
10:41 PM 35.6 °F 30.7 °F 33.8 °F 93% 29.63 in 1.5 mi NNE 5.8 mph - N/A   Overcast
10:51 PM 35.6 °F 31.7 °F 33.8 °F 93% 29.63 in 0.2 mi NE 4.6 mph - N/A Fog Fog
10:53 PM 35.6 °F 32.8 °F 33.8 °F 93% 29.63 in 0.2 mi ENE 3.5 mph - N/A Fog Fog
11:53 PM 36.0 °F - 35.1 °F 97% 29.65 in 0.2 mi Calm Calm - N/A Fog Fog